Location: Newark
(38.0892°N, 27.7378°E)
Time: 19:21:27
(UTC+00:00)

N. Korean satellite - Pass Details

Date: 11 December 2019
Orbit: 454 x 507 km, 97.2° (Epoch: 28 January)

Event Time Altitude Azimuth Distance (km) Brightness Sun altitude
Rises 15:08:55 0° 165° (SSE) 2,597 10.4 -4.2°
Reaches altitude 10° 15:10:59 10° 164° (SSE) 1,716 9.5 -4.6°
Maximum altitude 15:14:41 79° 77° (ENE) 520 6.6 -5.3°
Drops below altitude 10° 15:18:24 10° 351° (N) 1,719 9.2 -5.9°
Sets 15:20:29 0° 350° (N) 2,602 10.1 -6.3°
